TimeEDT,TemperatureF,Dew PointF,Humidity,Sea Level PressureIn,VisibilityMPH,Wind Direction,Wind SpeedMPH,Gust SpeedMPH,PrecipitationIn,Events,Conditions,WindDirDegrees,DateUTC
12:34 AM,49.3,23.9,37,29.97,10.0,South,13.8,20.7,N/A,,Overcast,190,2012-10-09 04:34:00
12:55 AM,49.1,24.1,38,29.97,10.0,South,13.8,21.9,N/A,,Overcast,180,2012-10-09 04:55:00
1:15 AM,49.1,24.1,38,29.96,10.0,South,13.8,23.0,N/A,,Overcast,190,2012-10-09 05:15:00
1:34 AM,48.9,24.3,38,29.95,10.0,South,16.1,21.9,N/A,,Overcast,180,2012-10-09 05:34:00
1:55 AM,48.7,24.1,38,29.94,10.0,South,13.8,20.7,N/A,,Mostly Cloudy,180,2012-10-09 05:55:00
2:14 AM,48.6,24.1,38,29.94,10.0,South,13.8,21.9,N/A,,Mostly Cloudy,170,2012-10-09 06:14:00
2:34 AM,48.2,24.1,39,29.94,10.0,South,12.7,-,N/A,,Mostly Cloudy,180,2012-10-09 06:34:00
2:55 AM,48.2,24.4,39,29.93,10.0,South,11.5,20.7,N/A,,Overcast,180,2012-10-09 06:55:00
3:14 AM,47.8,24.8,41,29.92,10.0,South,16.1,20.7,N/A,,Overcast,190,2012-10-09 07:14:00
3:34 AM,47.8,24.8,41,29.91,10.0,South,15.0,25.3,N/A,,Mostly Cloudy,190,2012-10-09 07:34:00
3:55 AM,47.5,25.3,42,29.90,10.0,South,15.0,19.6,N/A,,Overcast,190,2012-10-09 07:55:00
4:14 AM,47.3,25.7,43,29.90,10.0,South,15.0,19.6,N/A,,Overcast,190,2012-10-09 08:14:00
4:35 AM,47.3,26.4,44,29.89,10.0,South,17.3,21.9,N/A,,Overcast,180,2012-10-09 08:35:00
4:55 AM,46.9,27.1,46,29.88,10.0,South,15.0,21.9,N/A,,Overcast,190,2012-10-09 08:55:00
5:14 AM,46.9,27.5,47,29.88,10.0,South,15.0,25.3,N/A,,Overcast,190,2012-10-09 09:14:00
5:35 AM,46.9,28.0,48,29.87,10.0,South,16.1,23.0,N/A,,Overcast,190,2012-10-09 09:35:00
5:55 AM,46.8,28.4,49,29.87,10.0,South,16.1,23.0,N/A,,Overcast,180,2012-10-09 09:55:00
6:14 AM,46.8,28.6,49,29.87,10.0,South,17.3,23.0,N/A,,Overcast,190,2012-10-09 10:14:00
6:35 AM,46.4,29.1,51,29.88,10.0,South,16.1,25.3,N/A,,Overcast,190,2012-10-09 10:35:00
6:54 AM,46.4,29.3,51,29.88,10.0,South,11.5,19.6,N/A,,Overcast,190,2012-10-09 10:54:00
7:14 AM,46.4,29.8,53,29.88,10.0,South,15.0,19.6,N/A,,Overcast,180,2012-10-09 11:14:00
7:35 AM,46.4,30.2,53,29.87,10.0,South,17.3,-,N/A,,Mostly Cloudy,180,2012-10-09 11:35:00
7:54 AM,46.4,30.6,54,29.87,10.0,South,13.8,19.6,N/A,,Scattered Clouds,180,2012-10-09 11:54:00
8:14 AM,46.6,30.9,54,29.87,10.0,South,12.7,18.4,N/A,,Mostly Cloudy,180,2012-10-09 12:14:00
8:35 AM,46.8,31.1,55,29.87,10.0,South,12.7,18.4,N/A,,Overcast,190,2012-10-09 12:35:00
8:54 AM,46.9,31.8,56,29.87,10.0,South,11.5,18.4,N/A,,Overcast,180,2012-10-09 12:54:00
9:15 AM,47.7,32.0,55,29.87,10.0,South,12.7,19.6,N/A,,Overcast,190,2012-10-09 13:15:00
9:35 AM,48.2,32.4,54,29.87,10.0,South,12.7,20.7,N/A,,Overcast,190,2012-10-09 13:35:00
9:54 AM,48.4,32.7,55,29.87,10.0,South,15.0,20.7,N/A,Rain,Light Rain,180,2012-10-09 13:54:00
10:15 AM,48.4,33.8,57,29.86,10.0,South,13.8,18.4,N/A,Rain,Light Rain,190,2012-10-09 14:15:00
10:34 AM,49.1,33.8,56,29.86,10.0,South,12.7,21.9,N/A,,Overcast,180,2012-10-09 14:34:00
10:55 AM,49.3,34.0,56,29.86,10.0,South,13.8,-,N/A,,Light Drizzle,180,2012-10-09 14:55:00
11:15 AM,49.3,34.9,58,29.86,10.0,South,11.5,18.4,N/A,,Light Drizzle,180,2012-10-09 15:15:00
11:34 AM,50.0,35.2,57,29.86,10.0,South,10.4,-,N/A,,Overcast,180,2012-10-09 15:34:00
11:55 AM,50.4,36.1,58,29.87,10.0,South,6.9,-,N/A,,Overcast,180,2012-10-09 15:55:00
12:14 PM,51.4,36.7,57,29.86,10.0,South,8.1,-,N/A,,Overcast,170,2012-10-09 16:14:00
12:34 PM,53.1,37.6,56,29.86,10.0,South,9.2,-,N/A,,Mostly Cloudy,190,2012-10-09 16:34:00
12:55 PM,53.1,37.0,55,29.85,10.0,SSW,11.5,18.4,N/A,,Mostly Cloudy,200,2012-10-09 16:55:00
1:14 PM,53.6,37.6,55,29.85,10.0,SSW,15.0,20.7,N/A,,Overcast,200,2012-10-09 17:14:00
1:35 PM,54.1,37.6,54,29.83,10.0,South,15.0,18.4,N/A,,Overcast,180,2012-10-09 17:35:00
1:55 PM,54.5,37.2,52,29.82,10.0,SSW,13.8,24.2,N/A,,Overcast,200,2012-10-09 17:55:00
2:14 PM,54.9,37.4,52,29.81,10.0,SSW,10.4,25.3,N/A,,Overcast,200,2012-10-09 18:14:00
2:35 PM,55.8,36.7,49,29.81,10.0,South,13.8,18.4,N/A,,Mostly Cloudy,190,2012-10-09 18:35:00
2:55 PM,58.1,36.0,44,29.79,10.0,SSW,15.0,19.6,N/A,,Mostly Cloudy,200,2012-10-09 18:55:00
3:14 PM,57.4,34.2,42,29.78,10.0,SSW,16.1,20.7,N/A,,Mostly Cloudy,200,2012-10-09 19:14:00
3:35 PM,58.1,34.2,41,29.78,10.0,South,10.4,19.6,N/A,,Overcast,190,2012-10-09 19:35:00
3:54 PM,58.3,34.0,40,29.77,10.0,South,9.2,-,N/A,,Overcast,180,2012-10-09 19:54:00
4:14 PM,59.0,34.0,39,29.74,10.0,SSE,9.2,16.1,N/A,,Mostly Cloudy,160,2012-10-09 20:14:00
4:35 PM,60.1,34.7,39,29.74,10.0,SSW,11.5,17.3,N/A,,Scattered Clouds,200,2012-10-09 20:35:00
4:54 PM,59.9,34.2,38,29.72,10.0,South,15.0,24.2,N/A,,Scattered Clouds,180,2012-10-09 20:54:00
5:15 PM,60.6,34.2,37,29.71,10.0,South,18.4,24.2,N/A,,Clear,180,2012-10-09 21:15:00
5:35 PM,60.3,34.0,37,29.69,10.0,South,17.3,23.0,N/A,,Scattered Clouds,170,2012-10-09 21:35:00
5:54 PM,60.1,34.0,38,29.68,10.0,South,15.0,21.9,N/A,,Scattered Clouds,180,2012-10-09 21:54:00
6:15 PM,59.9,34.0,38,29.68,10.0,South,13.8,24.2,N/A,,Clear,190,2012-10-09 22:15:00
6:34 PM,59.9,34.3,38,29.68,10.0,South,13.8,19.6,N/A,,Scattered Clouds,180,2012-10-09 22:34:00
6:54 PM,59.9,34.7,39,29.68,10.0,South,11.5,18.4,N/A,,Overcast,190,2012-10-09 22:54:00
7:14 PM,58.3,37.6,46,29.69,10.0,SSW,9.2,16.1,N/A,Rain,Light Rain,210,2012-10-09 23:14:00
7:34 PM,59.2,36.5,43,29.69,10.0,SW,11.5,16.1,N/A,,Overcast,220,2012-10-09 23:34:00
7:55 PM,59.7,35.8,41,29.69,10.0,SW,13.8,24.2,N/A,,Overcast,220,2012-10-09 23:55:00
8:14 PM,60.4,34.3,38,29.69,10.0,SSW,20.7,35.7,N/A,,Overcast,210,2012-10-10 00:14:00
8:35 PM,60.3,34.2,38,29.68,10.0,SW,17.3,34.5,N/A,,Overcast,220,2012-10-10 00:35:00
8:55 PM,60.1,34.2,38,29.68,10.0,SSW,16.1,29.9,N/A,,Overcast,210,2012-10-10 00:55:00
9:14 PM,59.7,34.7,39,29.69,10.0,SW,13.8,24.2,N/A,,Overcast,230,2012-10-10 01:14:00
9:35 PM,51.8,44.6,76,29.71,10.0,West,11.5,23.0,N/A,Rain,Rain,270,2012-10-10 01:35:00
9:55 PM,50.9,43.9,77,29.72,10.0,West,9.2,16.1,N/A,,Overcast,260,2012-10-10 01:55:00
10:14 PM,50.0,44.1,80,29.72,10.0,WSW,11.5,16.1,N/A,Rain,Light Rain,250,2012-10-10 02:14:00
10:35 PM,49.1,43.7,82,29.72,7.0,West,10.4,20.7,N/A,Rain,Rain,260,2012-10-10 02:35:00
10:54 PM,47.3,42.1,82,29.73,7.0,West,10.4,20.7,N/A,,Drizzle,270,2012-10-10 02:54:00
11:14 PM,46.4,41.5,83,29.73,7.0,West,12.7,18.4,N/A,,Drizzle,260,2012-10-10 03:14:00
11:35 PM,45.9,41.2,84,29.74,7.0,West,12.7,16.1,N/A,Rain,Rain,270,2012-10-10 03:35:00
11:54 PM,45.1,41.0,85,29.74,5.0,West,11.5,17.3,N/A,,Drizzle,260,2012-10-10 03:54:00